Regional Weather Roundup
Issued by NWS

Home | Current Version | Previous Version | Graphics & Text | Print | Product List | Glossary On
Versions: 1 2 3 4 5 6 7 8 9 10 11 12 13 14 15 16 17 18 19 20 21 22 23 24 25 26 27 28 29 30 31 32 33 34 35 36 37 38 39 40 41 42 43 44 45 46 47 48 49 50
000
ASUS43 KFSD 230802
RWRSD

WEATHER ROUNDUP FOR SOUTH DAKOTA
NATIONAL WEATHER SERVICE SIOUX FALLS SD
300 AM CDT WED AUG 23 2017

NOTE: "FAIR" INDICATES FEW OR NO CLOUDS BELOW 12,000 FEET WITH NO
SIGNIFICANT WEATHER AND/OR OBSTRUCTIONS TO VISIBILITY.


SDZ001>005-009-010-012>017-230900-
NORTHWEST AND NORTH CENTRAL SOUTH DAKOTA

CITY           SKY/WX    TMP DP  RH WIND       PRES   REMARKS
BUFFALO          N/A     57  46  66 NE8       30.04F
FAITH            N/A     60  50  69 E13       30.09S
MOBRIDGE       CLEAR     56  46  69 E6        30.10F
$$

SDZ012>016-024>037-041>051-057-063-072>074-230900-
SOUTHWEST AND SOUTH CENTRAL SOUTH DAKOTA

CITY           SKY/WX    TMP DP  RH WIND       PRES   REMARKS
RAPID CTY ARPT CLEAR     57  47  69 S6        30.08S
PIERRE         CLEAR     60  51  72 SE10      30.10S
CUSTER         CLEAR     56  45  66 W3        30.21S
ELLSWORTH AFB  CLEAR     62  47  57 SE8       30.07S
PHILIP         CLEAR     58  51  78 E9        30.07F
PINE RIDGE     CLEAR     69  52  54 S23G30    30.09S
SPEARFISH      FAIR      63  48  59 W6        30.11S
WINNER         FAIR      59  54  83 SE5       30.12F
$$

SDZ004>011-016>023-039-040-230900-
NORTHEAST SOUTH DAKOTA

CITY           SKY/WX    TMP DP  RH WIND       PRES   REMARKS
ABERDEEN       CLEAR     47  47 100 SW5       30.14R
WATERTOWN      CLEAR     50  49  96 CALM      30.14R
BROOKINGS      CLEAR     52  50  93 CALM      30.15S
SISSETON         N/A     52  47  83 W3        30.10S
$$

SDZ017-020-022-023-036>040-048>070-230900-
SOUTHEAST SOUTH DAKOTA

CITY           SKY/WX    TMP DP  RH WIND       PRES   REMARKS
SIOUX FALLS    CLEAR     54  53  97 CALM      30.15S
HURON          PTCLDY    55  53  93 E3        30.14R
CHAMBERLAIN    CLEAR     56  54  91 E6        30.14S
MITCHELL       CLOUDY    55  51  86 CALM      30.14S
YANKTON        CLEAR     56  55  97 CALM      30.16S
$$

ABBREVIATIONS USED IN REMARKS
   TC - TEMPERATURE IN CELSIUS
  WCI - WIND CHILL INDEX
   HX - HEAT INDEX
  VSB - VISIBILITY





USA.gov is the U.S. government's official web portal to all federal, state and local government web resources and services.